Regional Weather Roundup
Issued by NWS

Home | Current Version | Previous Version | Text Only | Print | Product List | Glossary Off
Versions: 1 2 3 4 5 6 7 8 9 10 11 12 13 14 15 16 17 18 19 20 21 22 23 24 25 26 27 28 29 30 31 32 33 34 35 36 37 38 39 40 41 42 43 44 45 46 47 48 49 50

000
ASUS43 KLMK 280310
RWRKY
KENTUCKY REGIONAL WEATHER ROUNDUP
NATIONAL WEATHER SERVICE LOUISVILLE KY
1100 PM EDT SUN JUL 27 2014

NOTE "FAIR" INDICATES FEW OR NO CLOUDS BELOW 12,000 FEET
WITH NO SIGNIFICANT WEATHER AND/OR OBSTRUCTIONS TO VISIBILITY.

KYZ001>023-026-027-061>063-070>075-280400-
WESTERN AND SOUTH CENTRAL KENTUCKY

CITY           SKY/WX    TMP DP  RH WIND       PRES   REMARKS
PADUCAH        CLEAR     82  66  58 NW8       29.90R
HENDERSON      CLEAR     75  59  57 NW10      29.88R
OWENSBORO      PTCLDY    78  62  57 NW6       29.88R
HOPKINSVILLE   PTCLDY    80  72  74 W6        29.89R
BOWLING GREEN  CLEAR     80  70  71 W5        29.86R
GLASGOW        PTCLDY    79  69  70 W3        29.86R
$$

KYZ024-025-028>034-038-045-046-053-280400-
NORTH CENTRAL KENTUCKY

CITY           SKY/WX    TMP DP  RH WIND       PRES   REMARKS
LOUISVILLE/SDF PTCLDY    78  63  59 NW13      29.84R
LOUISVILLE/LOU CLEAR     78  62  57 NW12      29.84R
FORT KNOX      CLEAR     76  64  68 W10       29.85R
$$

KYZ035>037-039>044-047>052-055>060-089>105-280400-
NORTHEAST KENTUCKY

CITY           SKY/WX    TMP DP  RH WIND       PRES   REMARKS
LEXINGTON      MOCLDY    72  68  87 NW7       29.84S
COVINGTON      PTCLDY    70  65  84 W8        29.81R
FRANKFORT      PTCLDY    75  62  64 NW14G22   29.83R
$$

KYZ054-064>069-076>088-106>120-280400-
SOUTHEAST KENTUCKY

CITY           SKY/WX    TMP DP  RH WIND       PRES   REMARKS
JACKSON        MOCLDY    72  70  93 VRB3      29.85R FOG
LONDON         MOCLDY    73  68  84 SW6       29.87R
SOMERSET       PTCLDY    70  70 100 SW6       29.88S
MIDDLESBORO    CLOUDY    69  69 100 S3        29.91R THUNDER
MONTICELLO     MOCLDY    73  71  93 CALM      29.88R
$$



USA.gov is the U.S. government's official web portal to all federal, state and local government web resources and services.